Flag for Sudan Weather past 2 weeks in Port Sudan, Sudan

Now
73 °F

Clear.


Feels Like: 74 °F
Forecast: 74 / 83 °F
Wind: 2 mph from Northeast

Location: Jeddah King Abdul Aziz International Airport

Current Time: Jan 27, 2015 at 4:32:11 AM

Latest Report: Jan 27, 2015 at 4:00 AM


Visibility: 10 mi

Pressure: 29.95 "Hg

Humidity: 78%

Dew point: 66 °F

Location of Port SudanLocation

Historic Weather in Port Sudan — Graph

°F

Port Sudan temperature yesterday

Maximum temperature yesterday: 88 °F (at 12:00 PM)
Minimum temperature yesterday: 73 °F (at 5:00 AM)
Average temperature yesterday: 80 °F

Past Weeks' High & Low Weather Summary

 TemperatureHumidityPressure
High95 °F (Jan 23, 2:00 PM)83% (Jan 25, 7:00 AM)30.12 "Hg (Jan 25, 7:00 AM)
Low55 °F (Jan 21, 7:00 AM)6% (Jan 23, 2:00 PM)29.86 "Hg (Jan 23, 3:00 PM)
Average75 °F45%29.99 "Hg
* Reported Jan 12 3:00 AM — Jan 27 3:00 AM, Port Sudan, Weather by CustomWeather, © 2014

Note: Actual official high and low records may vary slightly from our data, if they occured in-between our weather recording intervals... More about our weather records

Advertising

Port Sudan weather history for previous 24 hours

 ConditionsComfort  
Time TempWeatherWind HumidityBarometerVisibility
3:00 AM
Jan 27
75 °FClear.5 mph78%29.95 "Hg10 mi
2:00 AM75 °FClear.5 mph74%29.95 "Hg10 mi
1:00 AM77 °FClear.2 mph74%29.98 "Hg10 mi
12:00 AM79 °FClear.2 mph70%29.95 "Hg10 mi
11:00 PM
Jan 26
79 °FClear.6 mph70%29.98 "Hg10 mi
10:00 PM79 °FClear.5 mph74%29.98 "Hg10 mi
9:00 PM81 °FClear.5 mph70%29.98 "Hg10 mi
8:00 PM81 °FClear.12 mph70%29.95 "Hg10 mi
7:00 PM81 °FClear.10 mph66%29.95 "Hg10 mi
6:00 PM82 °FPassing clouds.13 mph62%29.92 "HgN/A
5:00 PM84 °FPassing clouds.12 mph55%29.92 "HgN/A
4:00 PM84 °FPassing clouds.13 mph55%29.89 "HgN/A
3:00 PM86 °FPassing clouds.13 mph52%29.89 "HgN/A
2:00 PM86 °FSunny.18 mph49%29.92 "Hg5 mi
1:00 PM86 °FSunny.12 mph43%29.95 "Hg5 mi
12:00 PM88 °FSunny.5 mph31%29.98 "Hg5 mi
11:00 AM84 °FSunny.7 mph40%29.98 "Hg5 mi
10:00 AM81 °FSunny.5 mph51%30.01 "Hg5 mi
9:00 AM79 °FSunny.5 mph58%30.01 "Hg5 mi
8:00 AM73 °FSunny.5 mph83%29.98 "Hg10 mi
7:00 AM73 °FClear.3 mph83%29.98 "Hg10 mi
6:00 AM73 °FClear.3 mph83%29.98 "Hg10 mi
5:00 AM73 °FClear.3 mph83%29.95 "Hg10 mi
Weather by CustomWeather, © 2014

See weather overviewHow to use our weather pages